,,Stat6,,Stat2,,Stat8,,Stat9,,Stat10,,Wind1,,Wind1,
time,status,PA1M_AVG,status,PR1M_SUM,status,RH1M_AVG,status,SR1M_AVG,status,TA1M_AVG,status,W1dAve1m,status,W1sAve1m,
2006-02-11, 00:00:00,VALID,918.937,VALID,0,VALID,99.6035,VALID,-0.0169808,VALID,18.9622,VALID,141,VALID,1.16139,
2006-02-11, 00:01:00,VALID,918.944,VALID,0,VALID,99.723,VALID,-0.0169808,VALID,18.9659,VALID,139,VALID,1.18146,
2006-02-11, 00:02:00,VALID,918.922,VALID,0,VALID,99.8909,VALID,0,VALID,18.9495,VALID,136,VALID,1.03678,
2006-02-11, 00:03:00,VALID,918.916,VALID,0,VALID,99.9692,VALID,-0.0509425,VALID,18.9239,VALID,129,VALID,0.967797,
2006-02-11, 00:04:00,VALID,918.912,VALID,0,VALID,100,VALID,-0.0339617,VALID,18.9085,VALID,127,VALID,1.13548,
2006-02-11, 00:05:00,VALID,918.899,VALID,0,VALID,100,VALID,-0.0169808,VALID,18.8789,VALID,119,VALID,1.19668,
2006-02-11, 00:06:00,VALID,918.891,VALID,0,VALID,100,VALID,-0.0169808,VALID,18.8687,VALID,117,VALID,1.22949,
2006-02-11, 00:07:00,VALID,918.881,VALID,0,VALID,100,VALID,-0.0169808,VALID,18.8625,VALID,118,VALID,0.99343,
2006-02-11, 00:08:00,VALID,918.881,VALID,0,VALID,100,VALID,-0.0339617,VALID,18.859,VALID,120,VALID,0.986555,
2006-02-11, 00:09:00,VALID,918.874,VALID,0,VALID,100,VALID,-0.0169808,VALID,18.8526,VALID,128,VALID,0.962305,
2006-02-11, 00:10:00,VALID,918.875,VALID,0,VALID,100,VALID,0,VALID,18.8593,VALID,131,VALID,1.02077,
2006-02-11, 00:11:00,VALID,918.885,VALID,0,VALID,100,VALID,-0.0169808,VALID,18.8826,VALID,136,VALID,1.02493,
2006-02-11, 00:12:00,VALID,918.912,VALID,0,VALID,100,VALID,-0.0169808,VALID,18.8851,VALID,142,VALID,0.842035,
2006-02-11, 00:13:00,VALID,918.915,VALID,0,VALID,100,VALID,0,VALID,18.8983,VALID,140,VALID,0.509301,
2006-02-11, 00:14:00,VALID,918.943,VALID,0,VALID,100,VALID,0,VALID,18.9177,VALID,141,VALID,0.721989,
2006-02-11, 00:15:00,VALID,918.969,VALID,0,VALID,100,VALID,-0.0339617,VALID,18.9375,VALID,132,VALID,0.613095,
2006-02-11, 00:16:00,VALID,918.973,VALID,0,VALID,100,VALID,-0.0509425,VALID,18.9403,VALID,130,VALID,0.507626,
2006-02-11, 00:17:00,VALID,918.985,VALID,0,VALID,100,VALID,-0.0169808,VALID,18.9592,VALID,123,VALID,0.640625,
2006-02-11, 00:18:00,VALID,918.972,VALID,0,VALID,100,VALID,0,VALID,18.9594,VALID,118,VALID,0.794331,
2006-02-11, 00:19:00,VALID,918.964,VALID,0,VALID,100,VALID,-0.0169808,VALID,18.9825,VALID,118,VALID,0.901677,
2006-02-11, 00:20:00,VALID,918.952,VALID,0,VALID,100,VALID,0,VALID,19.0014,VALID,118,VALID,0.929688,
2006-02-11, 00:21:00,VALID,918.933,VALID,0,VALID,100,VALID,-0.0509425,VALID,19.0303,VALID,117,VALID,0.851004,
2006-02-11, 00:22:00,VALID,918.926,VALID,0,VALID,100,VALID,0,VALID,19.0797,VALID,116,VALID,0.853161,
2006-02-11, 00:23:00,VALID,918.904,VALID,0,VALID,99.9977,VALID,-0.0169808,VALID,19.0952,VALID,116,VALID,0.826126,
2006-02-11, 00:24:00,VALID,918.89,VALID,0,VALID,99.9456,VALID,0,VALID,19.1171,VALID,116,VALID,0.83194,
2006-02-11, 00:25:00,VALID,918.88,VALID,0,VALID,99.8464,VALID,-0.0169808,VALID,19.1565,VALID,116,VALID,0.613467,
2006-02-11, 00:26:00,VALID,918.879,VALID,0,VALID,99.7688,VALID,-0.0169808,VALID,19.1859,VALID,116,VALID,0.439918,
2006-02-11, 00:27:00,VALID,918.88,VALID,0,VALID,99.6493,VALID,-0.0339617,VALID,19.1993,VALID,116,VALID,0.465843,
2006-02-11, 00:28:00,VALID,918.871,VALID,0,VALID,99.5832,VALID,0,VALID,19.1983,VALID,116,VALID,0.465116,
2006-02-11, 00:29:00,VALID,918.86,VALID,0,VALID,99.5628,VALID,-0.0169808,VALID,19.2214,VALID,116,VALID,0.524709,
2006-02-11, 00:30:00,VALID,918.858,VALID,0,VALID,99.5412,VALID,-0.0679233,VALID,19.2279,VALID,148,VALID,0.794695,
2006-02-11, 00:31:00,VALID,918.843,VALID,0,VALID,99.4967,VALID,-0.0169808,VALID,19.2343,VALID,159,VALID,0.782848,
2006-02-11, 00:32:00,VALID,918.851,VALID,0,VALID,99.4318,VALID,0,VALID,19.2371,VALID,162,VALID,0.784226,
2006-02-11, 00:33:00,VALID,918.861,VALID,0,VALID,99.2754,VALID,0,VALID,19.25,VALID,160,VALID,1.02382,
2006-02-11, 00:34:00,VALID,918.86,VALID,0,VALID,99.1012,VALID,-0.0679233,VALID,19.2629,VALID,160,VALID,0.706845,
2006-02-11, 00:35:00,VALID,918.858,VALID,0,VALID,98.9931,VALID,-0.0339617,VALID,19.2791,VALID,160,VALID,0.636083,
2006-02-11, 00:36:00,VALID,918.858,VALID,0,VALID,98.8965,VALID,-0.0169808,VALID,19.3054,VALID,155,VALID,1.15288,
2006-02-11, 00:37:00,VALID,918.864,VALID,0,VALID,98.8215,VALID,-0.0339617,VALID,19.301,VALID,155,VALID,1.01726,
2006-02-11, 00:38:00,VALID,918.866,VALID,0,VALID,98.7426,VALID,-0.0339617,VALID,19.3246,VALID,156,VALID,1.13765,
2006-02-11, 00:39:00,VALID,918.875,VALID,0,VALID,98.7007,VALID,0.0169808,VALID,19.331,VALID,154,VALID,0.965199,
2006-02-11, 00:40:00,VALID,918.873,VALID,0,VALID,98.7185,VALID,0.0169808,VALID,19.3241,VALID,151,VALID,1.14097,
2006-02-11, 00:41:00,VALID,918.866,VALID,0,VALID,98.6829,VALID,0.0169808,VALID,19.3345,VALID,152,VALID,0.838118,
2006-02-11, 00:42:00,VALID,918.859,VALID,0,VALID,98.7007,VALID,0,VALID,19.3308,VALID,146,VALID,0.855741,
2006-02-11, 00:43:00,VALID,918.862,VALID,0,VALID,98.7643,VALID,0.0169808,VALID,19.3236,VALID,153,VALID,1.05684,
2006-02-11, 00:44:00,VALID,918.847,VALID,0,VALID,98.7719,VALID,0,VALID,19.3306,VALID,150,VALID,0.739211,
2006-02-11, 00:45:00,VALID,918.848,VALID,0,VALID,98.7706,VALID,0,VALID,19.3435,VALID,145,VALID,0.754464,
2006-02-11, 00:46:00,VALID,918.834,VALID,0,VALID,98.7744,VALID,-0.0339617,VALID,19.3497,VALID,147,VALID,1.00112,
2006-02-11, 00:47:00,VALID,918.833,VALID,0,VALID,98.7922,VALID,0.0169808,VALID,19.3465,VALID,147,VALID,0.980564,
2006-02-11, 00:48:00,VALID,918.829,VALID,0,VALID,98.7973,VALID,0,VALID,19.3529,VALID,151,VALID,0.876906,
2006-02-11, 00:49:00,VALID,918.831,VALID,0,VALID,98.7401,VALID,0,VALID,19.3661,VALID,152,VALID,1.21984,
2006-02-11, 00:50:00,VALID,918.814,VALID,0,VALID,98.6892,VALID,0.0169808,VALID,19.3758,VALID,163,VALID,0.920898,
2006-02-11, 00:51:00,VALID,918.812,VALID,0,VALID,98.6892,VALID,0,VALID,19.3723,VALID,156,VALID,1.17135,
2006-02-11, 00:52:00,VALID,918.814,VALID,0,VALID,98.6803,VALID,-0.0169808,VALID,19.3728,VALID,153,VALID,1.0599,
2006-02-11, 00:53:00,VALID,918.812,VALID,0,VALID,98.6066,VALID,-0.0169808,VALID,19.3823,VALID,141,VALID,0.856585,
2006-02-11, 00:54:00,VALID,918.786,VALID,0,VALID,98.5862,VALID,-0.0509425,VALID,19.385,VALID,146,VALID,1.1323,
2006-02-11, 00:55:00,VALID,918.783,VALID,0,VALID,98.5214,VALID,-0.0169808,VALID,19.3952,VALID,136,VALID,0.985102,
2006-02-11, 00:56:00,VALID,918.769,VALID,0,VALID,98.5214,VALID,-0.0169808,VALID,19.3982,VALID,150,VALID,0.872582,
2006-02-11, 00:57:00,VALID,918.75,VALID,0,VALID,98.5328,VALID,-0.0169808,VALID,19.4111,VALID,155,VALID,1.02344,
2006-02-11, 00:58:00,VALID,918.752,VALID,0,VALID,98.5277,VALID,-0.0169808,VALID,19.4086,VALID,148,VALID,0.920603,
2006-02-11, 00:59:00,VALID,918.737,VALID,0,VALID,98.6422,VALID,-0.0339617,VALID,19.3984,VALID,146,VALID,1.05741,
2006-02-11, 01:00:00,VALID,918.721,VALID,0,VALID,98.7159,VALID,-0.0339617,VALID,19.389,VALID,152,VALID,0.997222,
2006-02-11, 01:01:00,VALID,918.706,VALID,0,VALID,98.8596,VALID,-0.0679233,VALID,19.376,VALID,145,VALID,1.234,
2006-02-11, 01:02:00,VALID,918.71,VALID,0,VALID,98.9855,VALID,-0.0509425,VALID,19.3601,VALID,145,VALID,1.20778,
2006-02-11, 01:03:00,VALID,918.72,VALID,0,VALID,99.1572,VALID,-0.0509425,VALID,19.3273,VALID,149,VALID,1.0536,
2006-02-11, 01:04:00,VALID,918.703,VALID,0,VALID,99.2958,VALID,-0.0509425,VALID,19.2955,VALID,139,VALID,1.16815,
2006-02-11, 01:05:00,VALID,918.697,VALID,0,VALID,99.4522,VALID,-0.0509425,VALID,19.2565,VALID,145,VALID,1.0292,
2006-02-11, 01:06:00,VALID,918.705,VALID,0,VALID,99.6302,VALID,-0.0339617,VALID,19.2207,VALID,147,VALID,1.21928,
2006-02-11, 01:07:00,VALID,918.692,VALID,0,VALID,99.7841,VALID,0.0339617,VALID,19.2172,VALID,146,VALID,0.88418,
2006-02-11, 01:08:00,VALID,918.683,VALID,0,VALID,99.9265,VALID,0.0679233,VALID,19.1872,VALID,147,VALID,0.939062,
2006-02-11, 01:09:00,VALID,918.663,VALID,0,VALID,99.9728,VALID,0.101885,VALID,19.1708,VALID,144,VALID,1.05415,
2006-02-11, 01:10:00,VALID,918.64,VALID,0,VALID,100,VALID,0.0339617,VALID,19.171,VALID,144,VALID,0.896577,
2006-02-11, 01:11:00,VALID,918.614,VALID,0,VALID,100,VALID,0.0509425,VALID,19.1646,VALID,136,VALID,0.902249,
2006-02-11, 01:12:00,VALID,918.575,VALID,0,VALID,99.9919,VALID,0.0339617,VALID,19.1715,VALID,140,VALID,1.23583,
2006-02-11, 01:13:00,VALID,918.561,VALID,0,VALID,99.9138,VALID,0.0339617,VALID,19.1777,VALID,137,VALID,1.39102,
2006-02-11, 01:14:00,VALID,918.537,VALID,0,VALID,99.7307,VALID,0.0509425,VALID,19.1874,VALID,138,VALID,1.32795,
2006-02-11, 01:15:00,VALID,918.534,VALID,0,VALID,99.6035,VALID,0.0339617,VALID,19.1973,VALID,135,VALID,0.869186,
2006-02-11, 01:16:00,VALID,918.53,VALID,0,VALID,99.4916,VALID,0,VALID,19.21,VALID,137,VALID,1.23876,
2006-02-11, 01:17:00,VALID,918.519,VALID,0,VALID,99.4318,VALID,0.0169808,VALID,19.2334,VALID,144,VALID,0.981136,
2006-02-11, 01:18:00,VALID,918.506,VALID,0,VALID,99.3466,VALID,0.0339617,VALID,19.216,VALID,132,VALID,1.17111,
2006-02-11, 01:19:00,VALID,918.506,VALID,0,VALID,99.3199,VALID,0.0849042,VALID,19.2361,VALID,133,VALID,1.28542,
2006-02-11, 01:20:00,VALID,918.489,VALID,0,VALID,99.2805,VALID,0,VALID,19.2262,VALID,135,VALID,1.26918,
2006-02-11, 01:21:00,VALID,918.48,VALID,0,VALID,99.2805,VALID,0.0169808,VALID,19.2326,VALID,138,VALID,1.0307,
2006-02-11, 01:22:00,VALID,918.457,VALID,0,VALID,99.2882,VALID,0,VALID,19.2331,VALID,127,VALID,1.08594,
2006-02-11, 01:23:00,VALID,918.422,VALID,0,VALID,99.2818,VALID,0.0339617,VALID,19.2264,VALID,133,VALID,1.37723,
2006-02-11, 01:24:00,VALID,918.403,VALID,0,VALID,99.2907,VALID,0.0509425,VALID,19.2202,VALID,132,VALID,1.62593,
2006-02-11, 01:25:00,VALID,918.356,VALID,0,VALID,99.3161,VALID,0.0509425,VALID,19.2068,VALID,141,VALID,1.54233,
2006-02-11, 01:26:00,VALID,918.333,VALID,0,VALID,99.3746,VALID,0.0169808,VALID,19.1902,VALID,143,VALID,1.5109,
2006-02-11, 01:27:00,VALID,918.294,VALID,0,VALID,99.395,VALID,0,VALID,19.1844,VALID,131,VALID,2.29451,
2006-02-11, 01:28:00,VALID,918.263,VALID,0,VALID,99.4662,VALID,0.0509425,VALID,19.1643,VALID,139,VALID,1.57813,
2006-02-11, 01:29:00,VALID,918.239,VALID,0,VALID,99.4598,VALID,0.0509425,VALID,19.162,VALID,142,VALID,1.80812,
2006-02-11, 01:30:00,VALID,918.202,VALID,0,VALID,99.4509,VALID,0.0849042,VALID,19.1516,VALID,142,VALID,2.1748,
2006-02-11, 01:31:01,VALID,918.179,VALID,0,VALID,99.456,VALID,0.0679233,VALID,19.1618,VALID,143,VALID,1.69186,
2006-02-11, 01:32:01,VALID,918.151,VALID,0,VALID,99.4827,VALID,0.101885,VALID,19.1583,VALID,143,VALID,1.73495,
2006-02-11, 01:33:00,VALID,918.138,VALID,0,VALID,99.4967,VALID,0.0679233,VALID,19.1519,VALID,137,VALID,1.88472,
2006-02-11, 01:34:00,VALID,918.102,VALID,0,VALID,99.5336,VALID,0.0849042,VALID,19.1387,VALID,140,VALID,1.76935,
2006-02-11, 01:35:00,VALID,918.073,VALID,0,VALID,99.5959,VALID,0.101885,VALID,19.136,VALID,134,VALID,1.56529,
2006-02-11, 01:36:00,VALID,918.043,VALID,0,VALID,99.6378,VALID,0.0339617,VALID,19.1225,VALID,141,VALID,1.20518,
2006-02-11, 01:37:00,VALID,917.997,VALID,0,VALID,99.6696,VALID,-0.0509425,VALID,19.1108,VALID,136,VALID,1.85063,
2006-02-11, 01:38:00,VALID,917.954,VALID,0,VALID,99.7002,VALID,-0.0169808,VALID,19.1046,VALID,142,VALID,1.53373,
2006-02-11, 01:39:00,VALID,917.917,VALID,0,VALID,99.7192,VALID,-0.0679233,VALID,19.1016,VALID,134,VALID,1.57758,
2006-02-11, 01:40:00,VALID,917.877,VALID,0,VALID,99.7345,VALID,-0.0509425,VALID,19.1016,VALID,124,VALID,1.27422,
2006-02-11, 01:41:01,VALID,917.851,VALID,0,VALID,99.7447,VALID,-0.0849042,VALID,19.1016,VALID,123,VALID,1.56603,
2006-02-11, 01:42:00,VALID,917.828,VALID,0,VALID,99.7434,VALID,-0.0169808,VALID,19.0788,VALID,115,VALID,1.38058,
2006-02-11, 01:43:00,VALID,917.788,VALID,0,VALID,99.7434,VALID,-0.0509425,VALID,19.0817,VALID,124,VALID,1.49543,
2006-02-11, 01:44:01,VALID,917.762,VALID,0,VALID,99.7154,VALID,-0.0679233,VALID,19.0857,VALID,120,VALID,1.82522,
2006-02-11, 01:45:00,VALID,917.732,VALID,0,VALID,99.704,VALID,-0.0849042,VALID,19.0887,VALID,122,VALID,1.82999,
2006-02-11, 01:46:00,VALID,917.733,VALID,0,VALID,99.6874,VALID,-0.0509425,VALID,19.0852,VALID,119,VALID,2.06146,
2006-02-11, 01:47:00,VALID,917.726,VALID,0,VALID,99.7129,VALID,-0.0339617,VALID,19.0889,VALID,119,VALID,1.97747,
2006-02-11, 01:48:01,VALID,917.72,VALID,0,VALID,99.7167,VALID,-0.0339617,VALID,19.0785,VALID,116,VALID,1.62347,
2006-02-11, 01:49:00,VALID,917.697,VALID,0,VALID,99.7447,VALID,-0.0679233,VALID,19.0721,VALID,116,VALID,1.48819,
2006-02-11, 01:50:01,VALID,917.693,VALID,0,VALID,99.8006,VALID,-0.0509425,VALID,19.0857,VALID,134,VALID,1.0875,
2006-02-11, 01:51:00,VALID,917.664,VALID,0,VALID,99.8311,VALID,-0.0849042,VALID,19.0959,VALID,116,VALID,1.5545,
2006-02-11, 01:52:01,VALID,917.648,VALID,0,VALID,99.8502,VALID,-0.0169808,VALID,19.0792,VALID,121,VALID,1.47809,
2006-02-11, 01:53:00,VALID,917.62,VALID,0,VALID,99.8629,VALID,-0.0339617,VALID,19.0887,VALID,127,VALID,1.00918,
2006-02-11, 01:54:00,VALID,917.587,VALID,0,VALID,99.868,VALID,-0.0169808,VALID,19.0889,VALID,121,VALID,1.41146,
2006-02-11, 01:55:00,VALID,917.557,VALID,0,VALID,99.8502,VALID,-0.0169808,VALID,19.0887,VALID,119,VALID,0.984738,
2006-02-11, 01:56:00,VALID,917.514,VALID,0,VALID,99.8642,VALID,0,VALID,19.0788,VALID,113,VALID,1.4573,
2006-02-11, 01:57:01,VALID,917.476,VALID,0,VALID,99.8693,VALID,0,VALID,19.0887,VALID,115,VALID,1.12407,
2006-02-11, 01:58:00,VALID,917.437,VALID,0,VALID,99.8845,VALID,0.0169808,VALID,19.0919,VALID,129,VALID,1.11355,
2006-02-11, 01:59:01,VALID,917.401,VALID,0,VALID,99.8731,VALID,0,VALID,19.0855,VALID,105,VALID,1.0347,
2006-02-11, 02:00:00,VALID,917.368,VALID,0,VALID,99.9151,VALID,0,VALID,19.0758,VALID,109,VALID,1.14463,
2006-02-11, 02:01:01,VALID,917.349,VALID,0,VALID,99.9379,VALID,0,VALID,19.0693,VALID,110,VALID,1.22275,
2006-02-11, 02:02:00,VALID,917.307,VALID,0,VALID,99.9647,VALID,-0.0169808,VALID,19.0723,VALID,118,VALID,1.0609,
2006-02-11, 02:03:00,VALID,917.291,VALID,0,VALID,99.9944,VALID,0,VALID,19.0758,VALID,134,VALID,1.09659,
2006-02-11, 02:04:01,VALID,917.269,VALID,0,VALID,99.9969,VALID,0,VALID,19.0755,VALID,131,VALID,1.25994,
2006-02-11, 02:05:01,VALID,917.256,VALID,0,VALID,100,VALID,-0.0169808,VALID,19.0758,VALID,127,VALID,1.07924,
2006-02-11, 02:06:00,VALID,917.24,VALID,0,VALID,99.9941,VALID,0,VALID,19.0758,VALID,136,VALID,1.41279,
2006-02-11, 02:07:00,VALID,917.229,VALID,0,VALID,99.9941,VALID,0,VALID,19.0857,VALID,133,VALID,1.21264,
2006-02-11, 02:08:00,VALID,917.207,VALID,0,VALID,99.9964,VALID,0.0169808,VALID,19.0755,VALID,131,VALID,1.27362,
2006-02-11, 02:09:00,VALID,917.177,VALID,0,VALID,99.9898,VALID,-0.0169808,VALID,19.0725,VALID,134,VALID,1.49645,
2006-02-11, 02:10:00,VALID,917.157,VALID,0,VALID,99.9952,VALID,0,VALID,19.0695,VALID,132,VALID,1.17896,
2006-02-11, 02:11:00,VALID,917.139,VALID,0,VALID,99.999,VALID,-0.0509425,VALID,19.0499,VALID,134,VALID,1.37627,
2006-02-11, 02:12:00,VALID,917.107,VALID,0,VALID,100,VALID,-0.0339617,VALID,19.0432,VALID,131,VALID,1.02507,
2006-02-11, 02:13:00,VALID,917.078,VALID,0,VALID,100,VALID,-0.0339617,VALID,19.0569,VALID,138,VALID,1.2606,
2006-02-11, 02:14:00,VALID,917.061,VALID,0,VALID,100,VALID,0,VALID,19.0432,VALID,139,VALID,1.00872,
2006-02-11, 02:15:00,VALID,917.044,VALID,0,VALID,100,VALID,-0.0169808,VALID,19.0435,VALID,144,VALID,0.939977,
2006-02-11, 02:16:01,VALID,917.026,VALID,0,VALID,100,VALID,-0.0169808,VALID,19.043,VALID,147,VALID,1.32695,
2006-02-11, 02:17:00,VALID,917.026,VALID,0,VALID,100,VALID,0,VALID,19.0728,VALID,146,VALID,0.885789,
2006-02-11, 02:18:00,VALID,917.013,VALID,0,VALID,100,VALID,-0.0339617,VALID,19.0728,VALID,144,VALID,1.21484,
2006-02-11, 02:19:00,VALID,917.019,VALID,0,VALID,99.9672,VALID,-0.0169808,VALID,19.0857,VALID,147,VALID,1.1752,
2006-02-11, 02:20:00,VALID,917.015,VALID,0,VALID,99.8985,VALID,-0.0169808,VALID,19.0887,VALID,143,VALID,1.47008,
2006-02-11, 02:21:00,VALID,917.036,VALID,0,VALID,99.751,VALID,-0.0169808,VALID,19.121,VALID,138,VALID,1.00469,
2006-02-11, 02:22:01,VALID,917.017,VALID,0,VALID,99.6239,VALID,0,VALID,19.1342,VALID,150,VALID,1.00859,
2006-02-11, 02:23:00,VALID,917.018,VALID,0,VALID,99.5463,VALID,-0.0169808,VALID,19.1402,VALID,147,VALID,1.0717,
2006-02-11, 02:24:00,VALID,916.993,VALID,0,VALID,99.456,VALID,-0.0339617,VALID,19.1635,VALID,142,VALID,1.14172,
2006-02-11, 02:25:00,VALID,916.972,VALID,0,VALID,99.3288,VALID,0,VALID,19.1692,VALID,140,VALID,0.73331,
2006-02-11, 02:26:00,VALID,916.976,VALID,0,VALID,99.208,VALID,-0.0339617,VALID,19.1792,VALID,156,VALID,1.23828,
2006-02-11, 02:27:00,VALID,916.953,VALID,0,VALID,99.0872,VALID,-0.0169808,VALID,19.1923,VALID,147,VALID,1.1622,
2006-02-11, 02:28:00,VALID,916.93,VALID,0,VALID,98.9308,VALID,-0.0509425,VALID,19.1988,VALID,144,VALID,1.4114,
2006-02-11, 02:29:00,VALID,916.908,VALID,0,VALID,98.6841,VALID,-0.0339617,VALID,19.2406,VALID,147,VALID,1.48899,
2006-02-11, 02:30:00,VALID,916.891,VALID,0,VALID,98.4603,VALID,-0.0339617,VALID,19.2863,VALID,144,VALID,1.05804,
2006-02-11, 02:31:00,VALID,916.881,VALID,0,VALID,98.2073,VALID,-0.0169808,VALID,19.3082,VALID,151,VALID,1.46644,
2006-02-11, 02:32:01,VALID,916.862,VALID,0,VALID,97.8729,VALID,0,VALID,19.3278,VALID,156,VALID,1.46187,
2006-02-11, 02:33:00,VALID,916.855,VALID,0,VALID,97.6669,VALID,-0.0339617,VALID,19.3539,VALID,136,VALID,1.16273,
2006-02-11, 02:34:00,VALID,916.867,VALID,0,VALID,97.5626,VALID,-0.0169808,VALID,19.3701,VALID,137,VALID,1.12946,
2006-02-11, 02:35:00,VALID,916.858,VALID,0,VALID,97.5181,VALID,-0.0339617,VALID,19.3569,VALID,156,VALID,1.12954,
2006-02-11, 02:36:00,VALID,916.841,VALID,0,VALID,97.4736,VALID,-0.0169808,VALID,19.3571,VALID,139,VALID,1.04649,
2006-02-11, 02:37:00,VALID,916.837,VALID,0,VALID,97.3884,VALID,-0.0339617,VALID,19.3537,VALID,140,VALID,1.25349,
2006-02-11, 02:38:00,VALID,916.818,VALID,0,VALID,97.2892,VALID,-0.0169808,VALID,19.3763,VALID,132,VALID,1.03234,
2006-02-11, 02:39:00,VALID,916.819,VALID,0,VALID,97.2027,VALID,-0.0169808,VALID,19.3701,VALID,153,VALID,0.906822,
2006-02-11, 02:40:01,VALID,916.795,VALID,0,VALID,97.19,VALID,-0.0169808,VALID,19.3601,VALID,165,VALID,0.648624,
2006-02-11, 02:41:00,VALID,916.785,VALID,0,VALID,97.2536,VALID,0,VALID,19.3537,VALID,166,VALID,0.561285,
2006-02-11, 02:42:01,VALID,916.767,VALID,0,VALID,97.3172,VALID,-0.0339617,VALID,19.3442,VALID,166,VALID,0.3484,
2006-02-11, 02:43:01,VALID,916.77,VALID,0,VALID,97.41,VALID,-0.0169808,VALID,19.3251,VALID,166,VALID,0.355859,
2006-02-11, 02:44:00,VALID,916.77,VALID,0,VALID,97.438,VALID,-0.0169808,VALID,19.299,VALID,166,VALID,0.138445,
2006-02-11, 02:45:00,VALID,916.766,VALID,0,VALID,97.513,VALID,-0.0509425,VALID,19.2895,VALID,166,VALID,0.00181686,
2006-02-11, 02:46:00,VALID,916.771,VALID,0,VALID,97.6046,VALID,-0.0339617,VALID,19.2699,VALID,166,VALID,0.202753,
2006-02-11, 02:47:00,VALID,916.761,VALID,0,VALID,97.6427,VALID,-0.0169808,VALID,19.2408,VALID,157,VALID,0.550249,
2006-02-11, 02:48:01,VALID,916.752,VALID,0,VALID,97.6402,VALID,-0.0509425,VALID,19.1891,VALID,358,VALID,0.745236,
2006-02-11, 02:49:01,VALID,916.752,VALID,0,VALID,97.8284,VALID,-0.0339617,VALID,19.1309,VALID,360,VALID,0.697852,
2006-02-11, 02:50:00,VALID,916.732,VALID,0,VALID,98.0115,VALID,-0.0679233,VALID,19.0956,VALID,1,VALID,0.552641,
2006-02-11, 02:51:00,VALID,916.729,VALID,0,VALID,98.159,VALID,-0.0169808,VALID,19.0435,VALID,1,VALID,0.435352,
2006-02-11, 02:52:01,VALID,916.733,VALID,0,VALID,98.309,VALID,0.0169808,VALID,19.0176,VALID,1,VALID,0.174782,
2006-02-11, 02:53:01,VALID,916.751,VALID,0,VALID,98.4642,VALID,0.0169808,VALID,18.9982,VALID,1,VALID,0.00121528,
2006-02-11, 02:54:00,VALID,916.759,VALID,0,VALID,98.6066,VALID,0.0169808,VALID,18.9689,VALID,1,VALID,0.139137,
2006-02-11, 02:55:01,VALID,916.775,VALID,0,VALID,98.6625,VALID,0.0169808,VALID,18.9428,VALID,1,VALID,0.0928416,
2006-02-11, 02:56:01,VALID,916.764,VALID,0,VALID,98.7223,VALID,0.0169808,VALID,18.9306,VALID,1,VALID,0,
2006-02-11, 02:57:01,VALID,916.775,VALID,0,VALID,98.8202,VALID,0,VALID,18.8941,VALID,1,VALID,0.0270712,
2006-02-11, 02:58:01,VALID,916.746,VALID,0,VALID,98.9156,VALID,0.0169808,VALID,18.8784,VALID,1,VALID,0,
2006-02-11, 02:59:00,VALID,916.743,VALID,0,VALID,99.0275,VALID,0,VALID,18.8655,VALID,1,VALID,0,
2006-02-11, 03:00:00,VALID,916.728,VALID,0,VALID,99.1178,VALID,0,VALID,18.8627,VALID,1,VALID,0.0546875,
2006-02-11, 03:01:00,VALID,916.725,VALID,0,VALID,99.2131,VALID,-0.0169808,VALID,18.8533,VALID,1,VALID,0.0771949,
2006-02-11, 03:02:00,VALID,916.709,VALID,0,VALID,99.3377,VALID,-0.0169808,VALID,18.8464,VALID,1,VALID,0.308222,
2006-02-11, 03:03:01,VALID,916.689,VALID,0,VALID,99.3352,VALID,0,VALID,18.8461,VALID,77,VALID,0.549237,
2006-02-11, 03:04:00,VALID,916.68,VALID,0,VALID,99.4229,VALID,0.0509425,VALID,18.8235,VALID,80,VALID,0.57309,
2006-02-11, 03:05:00,VALID,916.65,VALID,0,VALID,99.4942,VALID,0.0169808,VALID,18.8039,VALID,80,VALID,0.643643,
2006-02-11, 03:06:01,VALID,916.648,VALID,0,VALID,99.587,VALID,0,VALID,18.7944,VALID,89,VALID,0.921875,
2006-02-11, 03:07:00,VALID,916.63,VALID,0,VALID,99.6353,VALID,0,VALID,18.8076,VALID,97,VALID,0.633929,
2006-02-11, 03:08:01,VALID,916.638,VALID,0,VALID,99.6887,VALID,-0.0169808,VALID,18.8212,VALID,98,VALID,0.74535,
2006-02-11, 03:09:01,VALID,916.648,VALID,0,VALID,99.7968,VALID,0,VALID,18.83,VALID,99,VALID,0.810826,
2006-02-11, 03:10:00,VALID,916.653,VALID,0,VALID,99.7637,VALID,0.0169808,VALID,18.8466,VALID,96,VALID,0.684896,
2006-02-11, 03:11:01,VALID,916.657,VALID,0,VALID,99.6544,VALID,0,VALID,18.8563,VALID,92,VALID,0.657703,
2006-02-11, 03:12:01,VALID,916.669,VALID,0,VALID,99.6251,VALID,0.0169808,VALID,18.8528,VALID,92,VALID,0.69494,
2006-02-11, 03:13:00,VALID,916.685,VALID,0,VALID,99.559,VALID,-0.0169808,VALID,18.863,VALID,99,VALID,0.805596,
2006-02-11, 03:14:01,VALID,916.687,VALID,0,VALID,99.4891,VALID,-0.0339617,VALID,18.8759,VALID,102,VALID,0.815217,
2006-02-11, 03:15:01,VALID,916.699,VALID,0,VALID,99.353,VALID,-0.0169808,VALID,18.8828,VALID,101,VALID,0.517882,
2006-02-11, 03:16:00,VALID,916.708,VALID,0,VALID,99.2475,VALID,0,VALID,18.8787,VALID,99,VALID,0.512277,
2006-02-11, 03:17:00,VALID,916.712,VALID,0,VALID,99.1686,VALID,0,VALID,18.8851,VALID,98,VALID,0.40067,
2006-02-11, 03:18:01,VALID,916.716,VALID,0,VALID,99.0961,VALID,-0.0169808,VALID,18.8821,VALID,97,VALID,0.596726,
2006-02-11, 03:19:00,VALID,916.722,VALID,0,VALID,99.086,VALID,0.0169808,VALID,18.8757,VALID,98,VALID,0.58194,
2006-02-11, 03:20:01,VALID,916.739,VALID,0,VALID,99.1076,VALID,0,VALID,18.8888,VALID,100,VALID,0.833854,
2006-02-11, 03:21:01,VALID,916.732,VALID,0,VALID,99.0631,VALID,-0.0339617,VALID,18.8826,VALID,103,VALID,0.707775,
2006-02-11, 03:22:01,VALID,916.732,VALID,0,VALID,99.1127,VALID,-0.0339617,VALID,18.8757,VALID,110,VALID,1.08398,
2006-02-11, 03:23:01,VALID,916.734,VALID,0,VALID,99.1292,VALID,0.0169808,VALID,18.8854,VALID,115,VALID,1.14704,
2006-02-11, 03:24:01,VALID,916.72,VALID,0,VALID,99.1318,VALID,-0.0169808,VALID,18.8657,VALID,120,VALID,1.15443,
2006-02-11, 03:25:00,VALID,916.698,VALID,0,VALID,99.2182,VALID,0.0339617,VALID,18.869,VALID,122,VALID,1.29018,
2006-02-11, 03:26:01,VALID,916.686,VALID,0,VALID,99.2068,VALID,0,VALID,18.8724,VALID,118,VALID,1.39737,
2006-02-11, 03:27:00,VALID,916.668,VALID,0,VALID,99.1699,VALID,-0.0169808,VALID,18.8722,VALID,116,VALID,1.57292,
2006-02-11, 03:28:01,VALID,916.641,VALID,0,VALID,99.208,VALID,0,VALID,18.8655,VALID,104,VALID,1.39499,
2006-02-11, 03:29:00,VALID,916.622,VALID,0,VALID,99.2284,VALID,-0.0169808,VALID,18.8593,VALID,112,VALID,1.63104,
2006-02-11, 03:30:00,VALID,916.614,VALID,0,VALID,99.2144,VALID,0.0169808,VALID,18.8563,VALID,105,VALID,1.04167,
2006-02-11, 03:31:01,VALID,916.62,VALID,0,VALID,99.2475,VALID,-0.0169808,VALID,18.8369,VALID,98,VALID,1.07209,
2006-02-11, 03:32:01,VALID,916.614,VALID,0,VALID,99.306,VALID,0,VALID,18.8309,VALID,101,VALID,1.19283,
2006-02-11, 03:33:01,VALID,916.622,VALID,0,VALID,99.4293,VALID,-0.0169808,VALID,18.8242,VALID,99,VALID,1.10513,
2006-02-11, 03:34:01,VALID,916.624,VALID,0,VALID,99.5043,VALID,0,VALID,18.8046,VALID,95,VALID,0.981549,
2006-02-11, 03:35:00,VALID,916.634,VALID,0,VALID,99.5565,VALID,0.0169808,VALID,18.7921,VALID,103,VALID,0.940549,
2006-02-11, 03:36:01,VALID,916.629,VALID,0,VALID,99.6086,VALID,0,VALID,18.7658,VALID,109,VALID,0.868641,